RH
60 52 47 48 48 50 50 46 45 48 54 52 46 44 40 40 36 40 46 52 56 57 58 58 56 53 42 34 46 48 37 42 47 47 47 39 28 24 27 55 72 82 84
63 61 56 56 58 58 59 54 58 53 46 44 44 43 42 40 35 31 30 29 30 31 35 42 46 51 57 48 41 43 51 44 48 53 51 47 41 29 26 25 35 63 77
66 68 67 68 69 65 60 54 48 46 46 45 44 44 43 42 42 39 37 38 36 30 25 23 25 36 48 53 47 47 56 56 49 54 54 52 50 47 37 27 26 28 60
72 73 72 64 57 57 56 50 49 51 49 48 49 49 49 47 46 45 42 41 40 33 32 31 32 32 30 32 34 34 44 57 57 53 60 56 54 53 50 34 28 27 27
62 59 56 59 58 51 49 53 54 53 53 54 57 59 56 55 53 50 46 43 42 42 40 38 37 39 41 42 42 46 46 37 41 50 59 58 58 55 56 52 42 33 28
57 56 57 54 52 51 55 57 59 61 63 56 42 35 30 21 17 27 40 37 27 32 44 41 36 32 28 29 35 43 49 52 56 51 55 58 65 58 59 61 56 47 38
52 53 56 57 57 60 63 65 68 64 46 32 33 51 48 24 54 47 23 42 55 37 37 41 37 36 31 21 17 16 20 29 35 43 53 58 64 67 67 62 76 61 49
57 60 63 65 66 65 56 51 43 38 36 32 26 53 44 45 71 68 78 58 79 47 64 65 60 60 52 47 38 31 26 22 23 23 23 39 54 68 71 76 71 74 63
66 67 61 49 46 46 50 57 61 58 42 30 22 65 60 51 72 61 72 75 92 89 90 92 91 68 57 52 50 44 41 40 35 31 26 25 27 47 61 72 85 79 73
58 46 38 29 42 59 62 67 69 48 26 32 28 62 72 85 73 66 64 77 82 87 92 93 77 62 65 69 70 59 56 50 48 45 41 38 33 28 38 50 72 77 77
37 40 42 37 39 48 69 70 60 33 28 26 50 67 75 82 81 85 75 66 71 72 85 84 82 86 80 96 95 81 70 61 61 63 68 62 55 56 36 46 53 73 83
40 41 55 70 65 64 73 71 56 55 48 34 50 66 68 71 70 73 71 68 67 69 66 77 87 75 73 75 85 91 68 65 65 69 71 73 69 61 78 50 49 65 83
43 34 39 73 85 76 91 78 75 65 42 40 44 60 56 71 74 74 73 68 78 67 72 74 79 80 70 72 80 59 77 63 69 72 66 67 62 57 61 73 60 82 90
27 35 46 72 78 76 75 90 70 51 48 46 46 50 53 68 57 68 84 89 82 72 65 67 70 77 78 77 75 40 65 75 69 63 60 60 54 47 46 72 74 86 94
25 24 48 84 84 71 82 87 68 59 50 48 49 53 56 57 64 68 73 82 97 95 79 65 67 67 72 75 79 83 83 78 58 72 70 59 56 52 42 56 74 79 91
27 27 34 80 82 79 84 90 76 59 51 58 54 57 62 66 72 74 76 91 100 98 88 68 63 67 72 72 79 85 80 71 64 57 52 58 62 59 51 44 70 83 77
39 34 43 75 86 85 96 91 81 55 62 60 58 63 70 74 83 98 98 93 87 84 80 70 72 73 79 84 84 85 75 79 82 77 66 56 55 52 52 46 60 88 91
46 41 48 74 80 85 97 78 60 66 70 65 64 69 76 90 90 98 96 94 92 89 89 80 74 77 86 87 88 91 86 81 73 78 72 69 58 51 50 48 47 72 99
50 52 68 83 99 98 96 60 65 76 69 69 72 74 71 85 94 94 95 94 94 95 93 90 87 86 83 82 97 91 88 88 82 83 71 65 59 48 49 51 42 64 95
57 61 73 96 97 94 94 75 78 71 70 70 67 63 51 51 81 96 99 98 96 100 100 96 92 87 87 85 91 92 88 81 78 77 76 66 56 47 53 58 50 80 96
67 71 73 78 88 99 97 91 72 74 68 67 53 39 40 50 57 77 100 100 100 100 98 96 88 81 80 81 85 85 96 99 92 88 82 77 76 88 66 85 98 93 94
71 85 83 82 85 83 78 77 74 70 67 50 37 41 52 61 98 98 81 96 100 100 100 98 92 94 92 90 91 89 100 99 87 88 88 80 82 82 100 91 100 91 96
70 79 85 79 87 83 84 77 72 63 50 37 44 53 86 100 100 100 100 99 98 94 96 100 100 94 89 87 94 99 97 100 100 96 98 86 96 91 91 97 95 100 90
70 78 80 86 89 91 81 78 65 55 41 42 50 72 100 100 100 100 98 100 100 99 98 100 100 100 98 99 98 99 98 98 99 100 100 97 92 98 87 53 88 97 94
76 82 80 85 92 82 84 72 61 48 42 46 55 98 100 100 100 99 100 100 100 99 98 97 95 96 91 92 97 100 100 100 96 79 81 100 100 100 100 79 56 85 97
79 81 85 93 87 88 80 67 59 53 46 52 74 61 70 91 100 100 100 100 100 100 100 100 100 100 98 96 96 98 100 100 95 97 90 100 93 95 88 74 58 53 72
Wind_Speed
4 4 4 5 7 8 9 11 12 15 21 24 25 25 26 25 24 23 22 22 22 21 21 22 22 24 25 24 23 21 20 17 13 11 10 10 12 13 14 16 19 23 23
6 6 6 8 10 12 14 15 18 21 24 25 26 24 23 21 20 20 22 23 24 25 25 24 23 22 22 24 25 25 24 23 21 18 14 11 10 12 14 16 18 22 25
7 8 9 11 12 14 17 19 21 25 27 24 22 23 24 25 26 25 25 25 26 27 27 27 28 27 25 24 24 26 27 27 27 25 23 19 14 12 14 15 17 22 24
7 7 9 12 16 19 18 20 22 24 22 22 22 25 26 28 29 30 30 30 29 27 26 26 28 28 29 29 28 27 29 29 29 29 27 26 23 18 14 14 16 19 23
6 10 19 26 24 19 18 22 22 21 22 23 26 29 29 29 30 31 31 27 23 22 24 26 27 29 30 32 33 30 27 29 30 30 29 29 27 26 21 17 17 17 18
15 20 20 20 20 18 22 22 23 27 29 31 31 29 29 27 23 19 19 21 27 27 25 27 30 31 32 32 33 35 35 31 29 30 30 31 29 30 29 25 22 20 19
16 16 15 15 16 19 23 26 29 31 27 28 26 23 20 12 10 15 26 24 20 26 27 29 30 32 34 34 33 32 34 37 36 33 32 31 29 29 31 31 27 25 22
16 15 16 18 22 27 29 24 21 23 24 26 24 18 13 14 10 10 14 19 18 27 23 26 31 27 28 29 31 30 30 31 33 33 33 36 35 31 29 32 32 28 26
14 16 20 22 22 21 21 23 22 24 24 22 20 12 11 10 22 12 17 17 18 21 22 22 23 25 26 27 27 27 28 28 29 30 31 30 34 37 34 29 32 34 30
16 18 21 22 23 24 23 22 21 23 20 17 16 11 12 14 16 20 15 19 21 23 22 23 26 31 28 24 23 25 25 27 28 28 28 28 28 31 37 35 30 32 33
18 21 24 27 25 25 23 21 22 17 16 15 13 11 12 12 12 15 24 21 21 19 19 18 17 18 21 19 20 21 22 23 26 26 25 26 26 25 28 34 32 31 33
22 22 24 25 26 24 20 21 19 17 16 14 13 10 11 13 16 17 21 23 26 25 22 20 17 19 20 20 21 22 17 19 22 23 24 23 23 23 22 26 33 30 30
25 27 27 27 25 19 22 23 19 15 14 15 15 14 16 16 18 18 19 22 22 28 28 22 23 21 22 22 22 26 19 13 16 20 20 20 18 18 20 23 25 28 29
27 29 28 26 21 23 24 20 15 12 15 15 16 17 19 17 20 22 19 19 26 30 30 31 28 25 25 25 26 29 25 22 18 15 19 21 20 17 16 19 23 25 29
24 26 23 21 19 25 22 22 18 13 15 15 19 19 22 23 23 25 25 23 21 31 37 37 35 28 29 29 29 27 25 26 26 24 20 21 21 19 17 15 19 25 26
26 26 20 20 24 25 27 21 19 17 15 18 20 23 23 26 27 26 27 27 24 28 39 34 34 31 29 28 27 27 26 27 26 25 27 25 26 24 21 18 17 22 28
27 24 20 20 20 23 21 23 20 15 17 23 23 25 25 27 27 23 24 25 24 24 31 41 32 30 30 27 26 25 25 24 22 25 24 23 23 24 22 20 18 18 23
28 25 21 18 18 20 22 21 13 13 23 24 24 26 29 28 29 25 24 24 25 25 27 35 33 28 25 25 25 24 22 21 23 23 26 23 22 20 20 21 19 16 24
28 23 19 18 21 18 18 13 14 21 22 22 26 30 32 30 27 25 25 26 24 23 23 26 33 27 26 22 21 20 20 24 23 23 24 22 20 19 18 17 20 18 22
25 21 21 19 23 17 11 15 19 20 20 26 30 32 33 31 27 25 24 24 23 22 22 24 27 26 22 21 19 18 17 17 21 20 20 22 23 21 19 16 16 15 21
22 20 20 18 16 16 13 17 15 22 25 31 31 30 31 30 26 22 19 20 21 22 22 21 24 24 22 20 19 18 18 17 20 16 16 13 12 12 17 15 12 12 18
21 19 19 19 15 11 10 16 21 25 29 28 28 29 27 23 18 20 19 16 16 23 24 24 25 22 21 20 19 17 16 14 15 12 10 10 8 11 11 14 14 13 11
20 19 18 16 13 11 17 20 24 26 25 25 27 26 21 18 18 17 18 22 22 21 22 24 24 23 22 20 19 18 17 15 14 11 11 14 11 12 14 15 15 14 13
17 15 16 15 12 17 18 23 24 23 22 23 24 21 18 18 17 17 21 20 18 20 19 17 19 21 21 20 19 21 17 17 17 15 13 16 14 15 14 20 20 13 10
12 14 15 14 15 16 22 23 22 21 21 22 21 17 17 17 17 17 19 19 20 18 17 20 19 20 20 20 20 18 19 14 16 17 16 15 13 11 10 13 19 20 13
15 16 16 16 15 20 21 20 19 20 20 21 19 19 19 17 16 18 18 18 18 19 20 18 16 14 13 14 14 15 16 15 14 6 8 10 9 8 5 7 13 20 20
Wind_Direction
244 244 270 293 309 313 315 310 306 304 316 323 324 325 323 320 314 309 307 305 302 300 295 290 289 290 292 290 288 286 283 283 283 284 297 299 276 268 263 258 252 248 245
257 268 275 287 295 296 295 295 304 312 317 320 319 320 318 313 308 305 304 304 302 299 298 296 293 288 284 283 283 281 279 277 276 278 274 274 286 275 268 259 257 253 245
267 279 287 292 295 294 299 304 314 319 319 316 316 316 314 310 307 305 304 303 300 296 292 290 289 288 286 283 279 279 277 278 273 272 275 271 268 277 273 266 257 254 251
282 283 295 294 294 297 301 303 313 318 313 310 307 308 310 306 302 305 308 307 304 297 289 285 284 284 284 285 281 274 272 276 277 274 270 270 270 268 272 267 264 258 251
307 303 316 298 305 304 305 315 317 315 313 311 312 311 307 303 299 298 298 297 294 290 288 286 283 282 281 281 281 281 276 269 271 271 273 269 263 267 262 261 262 260 256
306 305 307 305 305 303 312 315 319 320 316 318 319 314 311 310 302 284 282 290 294 296 296 296 293 289 285 283 280 280 281 276 268 268 269 267 264 257 261 256 255 257 256
301 298 297 304 305 314 317 315 315 314 314 315 320 314 315 313 264 274 278 280 291 293 294 297 298 299 298 292 288 284 279 279 278 269 265 267 266 259 253 257 254 252 253
305 312 319 319 315 314 315 319 325 328 327 327 327 325 317 303 284 280 278 290 295 296 301 298 302 305 307 301 294 290 286 282 280 278 270 262 264 263 259 251 254 256 251
314 316 316 319 323 327 322 320 320 323 323 322 322 324 315 297 310 309 301 306 310 309 309 310 308 306 303 298 295 291 289 288 285 283 281 271 260 260 260 260 251 254 258
315 321 322 323 317 313 314 311 311 317 319 321 323 315 306 298 305 303 301 302 304 309 312 310 303 297 298 301 290 286 287 286 286 286 285 282 274 261 258 259 259 252 254
325 326 324 326 323 316 299 301 310 318 324 324 322 319 313 308 305 295 306 309 305 306 303 311 323 324 320 301 294 289 281 281 282 285 288 288 283 277 261 257 258 256 250
321 317 315 310 307 304 299 308 306 311 313 319 325 324 318 314 310 306 304 305 306 309 306 310 305 307 314 312 311 287 283 282 282 286 289 292 296 289 277 262 254 254 249
312 310 305 298 292 288 318 310 310 307 314 322 324 322 318 311 306 304 303 303 299 301 305 302 304 303 306 298 300 308 284 286 276 281 290 294 301 305 289 271 253 249 239
308 306 306 301 295 306 312 314 303 303 309 318 318 314 317 313 308 304 296 297 297 297 298 300 299 299 299 296 291 293 290 280 287 287 289 290 296 305 310 267 261 248 244
324 326 318 311 299 302 304 308 289 291 294 307 316 312 314 314 309 303 294 292 293 297 295 297 297 296 293 292 290 287 284 279 276 279 289 294 295 303 308 294 261 252 249
329 326 314 300 302 299 295 306 284 281 287 303 302 308 306 305 301 295 291 293 292 290 292 294 294 295 296 292 286 281 278 277 276 276 278 285 289 296 302 309 275 256 251
332 323 303 292 295 294 296 298 288 274 290 301 295 301 302 301 298 297 296 294 292 289 289 293 294 297 296 295 290 285 275 268 271 274 278 280 283 287 293 303 302 274 251
332 324 312 299 292 289 291 292 271 284 293 295 294 298 301 301 301 300 298 295 293 291 290 292 297 300 297 296 293 286 271 255 261 271 275 279 282 287 287 284 294 287 253
329 322 315 304 299 282 290 272 283 293 295 296 301 305 305 304 303 301 299 297 295 291 288 288 293 296 299 297 294 287 278 258 260 268 276 276 277 283 287 291 287 285 256
327 322 316 309 300 302 285 285 296 296 300 305 307 307 305 304 304 304 299 298 297 293 292 289 290 295 296 293 291 298 287 264 259 263 273 275 275 276 278 278 280 275 257
323 322 321 323 310 294 290 297 297 305 309 310 310 308 307 308 308 304 301 299 298 297 295 290 292 295 294 294 292 291 293 285 262 263 269 278 272 267 266 274 269 254 249
317 312 314 314 312 305 298 304 310 313 312 312 312 313 315 318 315 311 311 309 304 304 298 291 292 292 292 293 293 287 283 297 280 263 266 266 277 256 257 248 256 266 240
314 309 310 312 300 291 305 312 313 313 314 315 319 320 320 320 320 316 316 317 313 309 303 290 288 283 286 289 293 291 276 279 280 265 275 278 280 271 252 248 238 239 240
311 311 310 306 291 301 308 312 315 315 318 322 325 325 320 320 318 322 319 316 312 309 308 304 294 287 283 285 278 280 286 274 274 270 272 277 279 274 265 247 245 224 212
302 306 309 303 300 304 310 314 316 319 323 327 328 326 323 320 320 328 319 316 316 317 310 308 303 295 290 288 280 275 277 260 266 264 262 260 269 274 263 252 235 240 199
296 294 292 289 295 306 311 314 319 323 328 330 334 331 331 329 331 326 321 318 323 322 321 317 316 320 316 304 299 264 260 262 273 233 249 252 263 267 273 262 229 223 230